Tracking 29042 objects as of 20-Jun-2024
HD Live streaming from Space Station
objects crossing your sky now

HONGYAN 1

Track HONGYAN 1 now!
10-day predictions


NORAD ID: 43914
Int'l Code: 2018-112F
Perigee: 1,097.6 km
Apogee: 1,107.3 km
Inclination: 50.0 °
Period: 107.2 minutes
Semi major axis: 7473 km
RCS: Unknown
Launch date: December 29, 2018
Source: People's Republic of China (PRC)
Launch site: Jiuquan Satellite Launch Center, China (JSC)
Your satellite tracking list
Your tracking list is empty




NASA's NSSDC Master Catalog

Two Line Element Set (TLE):
1 43914U 18112F   24172.57626985 -.00000102  00000-0  46555-4 0  9991
2 43914  50.0095  29.4726 0006453 203.8975 156.1604 13.43762139268833
Source of the keplerian elements: AFSPC